Jerome, ID

11:15 PM MDT on April 28, 2017 (GMT -0600)
Jerome County

Weather History for KJER - April, 2013

Change the Weather History Date:

Monday, April 1, 2013

  Actual Average Record
Temperature  
Mean Temperature 48 °F 44 °F  
Max Temperature 56 °F 55 °F 77 °F (1966)
Min Temperature 40 °F 33 °F 12 °F (1936)
Degree Days  
Heating Degree Days 17 21  
Month to date heating degree days 17 21  
Since 1 July heating degree days 5365 5677  
Cooling Degree Days 0 0  
Month to date cooling degree days 0 0  
Year to date cooling degree days 0 0  
Moisture  
Dew Point 41 °F    
Average Humidity 76    
Maximum Humidity 93    
Minimum Humidity 59    
Precipitation  
Precipitation 0.10 in 0.04 in 0.57 in (1974)
Month to date precipitation 0.10 0.04  
Year to date precipitation 1.60 3.06  
Sea Level Pressure  
Sea Level Pressure 29.95 in    
Wind  
Wind Speed 6 mph (SW)    
Max Wind Speed 13 mph    
Max Gust Speed 23 mph    
Visibility 10 miles    
Events Rain    
T = Trace of Precipitation, MM = Missing Value Source: NWS Daily Summary

Daily Weather History Graph

Daily Weather History Graph

Search for Another Location

Airport or City:

Trip Planner

Search our weather history database for the weather conditions in past years. The results will help you decide how hot, cold, wet, or windy it might be!

Date:

Astronomy

Apr. 01, 2013 Rise Set
Actual Time 7:19 AM MDT 8:04 PM MDT
Civil Twilight 6:50 AM MDT 8:32 PM MDT
Nautical Twilight 6:17 AM MDT 9:06 PM MDT
Astronomical Twilight 5:42 AM MDT 9:42 PM MDT
Moon 1:22 AM MDT (4/1) 11:04 AM MDT (4/1)
Length of Visible Light 13h 41m
Length of Day
12h 44m
Waning Gibbous, 66% of the Moon is Illuminated
Apr 1
Waning Gibbous
Apr 2
Last Quarter
Apr 10
New
Apr 18
First Quarter
Apr 25
Full

Hourly Weather History & Observations

Time (MDT) Temp. Windchill Dew Point Humidity Pressure Visibility Wind Dir Wind Speed Gust Speed Precip Events Conditions
12:53 AM 46.9 °F - 37.0 °F 68% 29.90 in 10.0 mi Calm Calm - N/A   Mostly Cloudy
1:53 AM 48.9 °F - 39.0 °F 69% 29.89 in 10.0 mi SSW 5.8 mph - N/A   Mostly Cloudy
2:53 AM 46.0 °F 43.9 °F 37.9 °F 73% 29.89 in 10.0 mi South 4.6 mph - N/A   Clear
3:53 AM 46.9 °F - 37.9 °F 71% 29.88 in 10.0 mi Calm Calm - N/A   Clear
4:53 AM 44.1 °F - 37.9 °F 79% 29.87 in 10.0 mi Calm Calm - N/A   Mostly Cloudy
5:53 AM 46.9 °F - 39.0 °F 74% 29.88 in 10.0 mi Calm Calm - N/A   Mostly Cloudy
6:53 AM 45.0 °F 42.6 °F 39.0 °F 80% 29.90 in 10.0 mi East 4.6 mph - N/A   Overcast
7:53 AM 46.9 °F - 39.0 °F 74% 29.93 in 10.0 mi SSE 3.5 mph - N/A   Overcast
9:53 AM 45.0 °F 40.6 °F 42.1 °F 90% 29.96 in 10.0 mi WSW 8.1 mph - 0.02 in Rain Light Rain
10:53 AM 45.0 °F 40.1 °F 42.1 °F 90% 29.97 in 10.0 mi WSW 9.2 mph - 0.07 in Rain Light Rain
11:53 AM 46.0 °F 41.9 °F 44.1 °F 93% 29.99 in 10.0 mi SW 8.1 mph - 0.00 in Rain Light Rain
12:24 PM 48.2 °F - 44.6 °F 87% 30.00 in 10.0 mi WSW 9.2 mph - 0.01 in   Overcast
12:53 PM 48.0 °F - 43.0 °F 83% 29.99 in 10.0 mi WSW 8.1 mph - 0.01 in   Overcast
1:09 PM 48.2 °F - 42.8 °F 82% 30.00 in 10.0 mi West 10.4 mph - N/A   Overcast
1:46 PM 51.8 °F - 44.6 °F 76% 29.99 in 10.0 mi West 9.2 mph - N/A   Mostly Cloudy
1:53 PM 51.1 °F - 44.1 °F 77% 29.96 in 10.0 mi WSW 8.1 mph - N/A   Scattered Clouds
2:53 PM 53.1 °F - 42.1 °F 66% 29.96 in 10.0 mi WSW 10.4 mph - N/A   Scattered Clouds
3:53 PM 53.1 °F - 43.0 °F 69% 29.94 in 10.0 mi West 9.2 mph - N/A   Overcast
4:05 PM 53.6 °F - 42.8 °F 67% 29.97 in 10.0 mi WSW 5.8 mph - N/A   Overcast
4:16 PM 53.6 °F - 42.8 °F 67% 29.96 in 10.0 mi West 8.1 mph - N/A   Mostly Cloudy
4:53 PM 54.0 °F - 42.1 °F 64% 29.94 in 10.0 mi SW 8.1 mph - N/A   Scattered Clouds
5:53 PM 55.0 °F - 41.0 °F 59% 29.93 in 10.0 mi SW 8.1 mph - N/A   Clear
6:53 PM 53.1 °F - 41.0 °F 64% 29.93 in 10.0 mi WSW 11.5 mph - N/A   Clear
7:53 PM 51.1 °F - 42.1 °F 71% 29.94 in 10.0 mi SSW 5.8 mph - N/A   Partly Cloudy
8:53 PM 48.9 °F - 42.1 °F 77% 29.96 in 10.0 mi SSE 5.8 mph - N/A   Clear
9:53 PM 48.0 °F - 41.0 °F 77% 29.97 in 10.0 mi South 6.9 mph - N/A   Clear
10:53 PM 46.0 °F 42.5 °F 39.0 °F 76% 29.99 in 10.0 mi SSE 6.9 mph - N/A   Clear
11:53 PM 45.0 °F 41.2 °F 39.0 °F 80% 29.98 in 10.0 mi South 6.9 mph - N/A   Mostly Cloudy